#timestamp,LO_Frequency,Hit,StdDev 
1543716015.9,286046999.6,N
1543716035.7,286046999.2,N
1543716055.5,286046998.8,N
1543716075.4,286046998.3,N
1543716095.2,286047000.3,N
1543716115.1,286047002.5,N
1543716116.0,286047002.5,N
1543716135.8,286047000.1,N
1543716155.6,286047002.6,N
1543716175.5,286047000.2,N
1543716195.3,286047001.0,N
1543716215.1,286047002.7,N
1543716235.9,286047002.2,N
1543716255.7,286047000.9,N
1543716275.6,286047000.2,N
1543716295.4,286046999.8,N
1543716315.2,286047002.6,N
1543716335.1,286047002.5,N
1543716336.0,286047002.5,N
1543716355.8,286047001.2,N
1543716375.7,286046998.4,N
1543716395.5,286046998.6,N
1543716415.3,286046998.9,N
1543716435.2,286046998.5,N
1543716455.9,286046998.5,N
1543716475.7,286046998.7,N
1543716495.6,286047000.4,N
1543716515.4,286047000.7,N
1543716535.2,286047000.7,N
1543716555.1,286047001.8,N
1543716556.0,286047001.8,N
1543716575.8,286047001.6,N
1543716595.7,286047002.1,N
1543716615.5,286047002.6,N
1543716635.3,286046999.7,N
1543716655.2,286046999.9,N
1543716675.0,286047000.1,N
1543716675.9,286047000.1,N
1543716695.8,286047000.3,N
1543716715.6,286047000.6,N
1543716735.4,286047001.0,N
1543716755.3,286047000.0,N
1543716775.4,286047002.7,N
1543716795.2,286047000.2,N
1543716815.0,286046998.5,N
1543716815.9,286046998.5,N
1543716835.8,286046998.2,N
1543716855.6,286047000.7,N
1543716875.5,286047000.5,N
1543716895.3,286047000.0,N
1543716915.1,286047002.7,N
1543716935.9,286047000.1,N
1543716955.7,286047000.9,N
1543716975.5,286046999.8,N
1543716995.4,286047002.8,N
1543717015.2,286047001.8,N
1543717035.1,286047002.4,N
1543717036.0,286047002.4,N
1543717055.8,286047002.4,N
1543717075.6,286047002.2,N
1543717095.5,286047001.8,N
1543717115.3,286047002.5,N
1543717135.1,286047002.8,N
1543717155.9,286047002.3,N
1543717175.7,286047004.2,Y
1543717195.6,286047000.4,P
1543717215.4,286047000.9,P
1543717235.2,286047000.9,P
1543717255.1,286047001.0,Y
1543717256.0,286047001.0,P
1543717275.8,286046998.8,P
1543717295.7,286047000.9,N
1543717315.5,286046998.2,N
1543717335.3,286046999.3,N
1543717355.2,286046999.0,N
1543717375.0,286046999.3,N
1543717375.9,286046999.3,N
1543717395.8,286046998.7,N
1543717415.6,286046998.4,N
1543717435.4,286046996.8,Y
1543717455.3,286046996.7,P
1543717475.1,286046999.6,N
1543717495.8,286046999.6,N
1543717515.7,286046999.4,N
1543717535.5,286046998.1,N
1543717555.4,286046998.8,N
1543717575.2,286046999.5,N
1543717595.0,286046998.6,N
1543717595.9,286046998.6,N
1543717615.8,286046998.9,N
1543717635.6,286046999.4,N
1543717655.4,286046999.5,N
1543717675.3,286046996.7,Y
1543717695.1,286046999.3,P
1543717715.9,286046996.7,P
1543717735.7,286046997.2,N
1543717755.5,286046997.5,N
1543717775.4,286046997.0,N
1543717795.2,286046998.4,N
1543717815.0,286046998.3,N
1543717815.9,286046998.3,N
1543717835.8,286046998.8,N
1543717855.6,286046999.2,N
1543717875.4,286046998.6,N
1543717895.3,286046998.3,N
1543717915.1,286046999.2,N
1543717935.9,286046999.3,N
1543717955.7,286046998.8,N
1543717975.5,286046998.1,N
1543717995.4,286047000.6,N
1543718015.2,286047001.0,N
1543718035.0,286046999.9,N
1543718035.9,286046999.9,N
1543718055.8,286047000.9,N
1543718075.6,286046998.7,N
1543718095.5,286047001.1,N
1543718115.3,286046999.0,N
1543718135.7,286046999.0,N
1543718155.6,286046998.1,N
1543718175.4,286046999.0,N
1543718195.3,286046998.1,N
1543718215.1,286046996.7,Y
1543718216.0,286046996.7,P
1543718235.8,286046999.9,N
1543718255.7,286047001.1,N
1543718275.5,286046998.5,N
1543718295.3,286047000.8,N
1543718315.2,286047000.2,N
1543718335.0,286047002.8,N
1543718355.7,286047002.1,N
1543718375.5,286047002.7,N
1543718395.3,286047001.0,N
1543718415.2,286046998.1,N
1543718435.0,286047000.8,N
1543718435.9,286047000.8,N
1543718455.8,286047000.7,N
1543718475.6,286047001.0,N
1543718495.4,286047000.9,N
1543718515.3,286047000.4,N
1543718535.1,286046999.9,N
1543718555.8,286046998.6,N
1543718575.7,286046998.1,N
1543718595.8,286046999.1,N
1543718615.6,286046998.1,N
1543718635.5,286047000.3,N
1543718655.3,286047000.7,N
1543718675.2,286046998.4,N
1543718695.9,286047000.7,N
1543718715.7,286047000.2,N
1543718735.6,286047000.9,N
1543718755.4,286047001.2,N
1543718775.3,286047000.6,N
1543718795.1,286046998.8,N
1543718796.0,286046998.8,N
1543718815.8,286047001.1,N
1543718835.7,286046998.1,N
1543718855.5,286047001.2,N
1543718875.4,286047002.7,N
1543718895.2,286046999.7,N
1543718915.0,286047002.5,N
1543718915.9,286047002.5,N
1543718935.8,286047001.8,N
1543718955.6,286047001.4,N
1543718975.4,286047002.8,N
1543718995.3,286046999.7,N
1543719015.8,286047000.1,N
1543719035.6,286047002.4,N
1543719055.5,286047002.2,N
1543719075.5,286047002.3,N
1543719095.3,286047004.4,N
1543719115.1,286047002.2,N
1543719135.9,286047002.7,N
1543719155.7,286047003.5,N
1543719175.6,286047003.4,N
1543719195.4,286047006.0,Y
1543719215.2,286047002.1,P
1543719235.1,286047004.2,P
1543719236.0,286047004.2,P
1543719255.8,286047004.2,Y
1543719275.7,286047000.5,P
1543719295.5,286046998.5,N
1543719315.3,286046997.1,N
1543719335.2,286046999.2,N
1543719355.0,286046999.6,N
1543719355.9,286046999.6,N
1543719375.8,286046997.0,N
1543719395.6,286046999.6,N
1543719415.4,286046999.1,N
1543719435.3,286046996.8,N
1543719455.1,286046999.3,N
1543719475.8,286046999.1,N
1543719495.7,286046998.4,N
1543719515.5,286046998.6,N
1543719535.4,286046998.4,N
1543719555.2,286046999.4,N
1543719575.0,286046998.4,N
1543719575.9,286046998.4,N
1543719595.8,286047000.7,N
